FW5819 Weather Reports


Display with metric or nautical units.
time (UTC)temp
F
wind
direction
speed
MPH
gust
MPH
rain 1hr
in
rain 24hr
in
rain mn
in
humidity
%
barometer
mb
20260902113048 75 207 0.0 2.0 0.00 0.00 0.00 91 1016.6
20260902111540 75 0 0.0 2.0 0.00 0.00 0.00 91 1016.5
20260902110046 75 219 0.0 3.0 0.00 0.00 0.00 91 1016.2
20260902104543 75 0 0.0 2.0 0.00 0.00 0.00 91 1016.2
20260902103052 75 196 0.0 3.0 0.00 0.00 0.00 91 1016.2
20260902101543 75 0 0.0 3.0 0.00 0.00 0.00 91 1016.1
20260902100104 75 0 0.0 4.0 0.00 0.00 0.00 92 1016.3
20260902094541 75 0 0.0 2.0 0.00 0.00 0.00 91 1016.2
20260902093104 75 173 1.0 4.0 0.00 0.00 0.00 92 1016.4
20260902092019 74 194 0.0 6.0 0.00 0.00 0.00 92 1016.3
20260902090039 74 0 0.0 3.0 0.00 0.00 0.00 92 1016.3
20260902084544 74 142 0.0 3.0 0.00 0.00 0.00 92 1016.4
20260902083043 74 0 0.0 2.0 0.00 0.00 0.00 92 1016.4
20260902081548 74 0 0.0 1.0 0.00 0.00 0.00 93 1016.3
20260902080041 74 0 0.0 0.0 0.00 0.00 0.00 93 1016.2
20260902074542 74 0 0.0 0.0 0.00 0.00 0.00 93 1016.1
20260902073039 74 0 0.0 2.0 0.00 0.00 0.00 93 1016.2
20260902071546 74 0 0.0 1.0 0.00 0.00 0.00 93 1016.2
20260902070044 74 0 0.0 1.0 0.00 0.00 0.00 93 1016.2
20260902064544 73 0 0.0 1.0 0.00 0.00 0.00 93 1016.3
20260902063043 73 0 0.0 0.0 0.00 0.00 0.00 92 1016.4
20260902061553 72 0 0.0 0.0 0.00 0.00 0.00 92 1016.4
20260902060051 73 0 0.0 0.0 0.00 0.00 0.00 91 1016.6
20260902054541 73 0 0.0 1.0 0.00 0.00 0.00 91 1016.5
20260902053038 73 0 0.0 3.0 0.00 0.00 0.00 92 1016.5
20260902051539 73 0 0.0 0.0 0.00 0.00 0.00 91 1016.3
20260902050044 73 0 0.0 0.0 0.00 0.00 0.00 91 1016.4
20260902044543 73 0 0.0 0.0 0.00 0.00 0.00 90 1016.3
20260902043049 73 0 0.0 0.0 0.00 0.00 0.00 90 1016.4
20260902041601 73 0 0.0 0.0 0.00 0.00 0.00 90 1016.4
20260902040045 73 0 0.0 0.0 0.00 0.00 0.00 89 1016.1
20260902034539 74 0 0.0 0.0 0.00 0.00 0.00 88 1015.8
20260902033041 74 0 0.0 0.0 0.00 0.00 0.00 87 1015.9
20260902031545 75 0 0.0 0.0 0.00 0.00 0.00 87 1015.9
20260902030042 76 153 0.0 0.0 0.00 0.00 0.00 86 1015.8
20260902024549 77 0 0.0 2.0 0.00 0.00 0.00 85 1016.1
20260902023042 77 0 0.0 3.0 0.00 0.00 0.00 86 1016.3
20260902021549 77 261 1.0 4.0 0.00 0.00 0.00 88 1016.3
20260902020124 76 248 0.0 3.0 0.00 0.00 0.00 88 1016.0
20260902014541 75 0 0.0 0.0 0.00 0.00 0.00 86 1015.9
20260902013044 76 0 0.0 0.0 0.00 0.00 0.00 84 1015.8
20260902011542 76 0 0.0 0.0 0.00 0.00 0.00 83 1015.7
20260902010040 76 0 0.0 0.0 0.00 0.00 0.00 82 1015.6
20260902004540 77 0 0.0 0.0 0.00 0.00 0.00 81 1015.4
20260902003048 78 0 0.0 0.0 0.00 0.00 0.00 78 1015.3
20260902001546 79 0 0.0 0.0 0.00 0.00 0.00 75 1015.2
20260902000043 80 0 0.0 1.0 0.00 0.00 0.00 73 1015.3
20260901234540 81 0 0.0 3.0 0.00 0.00 0.00 72 1015.4
20260901233054 81 249 1.0 4.0 0.00 0.00 0.00 72 1015.5
20260901231545 82 227 1.0 8.0 0.00 0.00 0.00 73 1015.7
20260901230041 82 292 2.0 14.0 0.00 0.00 0.00 74 1015.7
20260901224542 83 242 4.0 12.0 0.00 0.00 0.00 74 1015.8
20260901223043 83 224 1.0 9.0 0.00 0.00 0.00 76 1016.0
20260901221539 84 305 2.0 7.0 0.00 0.00 0.00 75 1016.2
20260901220044 85 223 3.0 8.0 0.00 0.00 0.00 73 1016.1
20260901214554 86 242 4.0 9.0 0.00 0.00 0.00 71 1016.4
20260901213110 86 296 2.0 10.0 0.00 0.00 0.00 71 1016.1
20260901211542 87 242 4.0 9.0 0.00 0.00 0.00 69 1016.1
20260901210041 88 321 3.0 12.0 0.00 0.00 0.00 72 1016.0
20260901204545 89 141 4.0 11.0 0.00 0.00 0.00 70 1016.0
20260901203111 90 85 3.0 11.0 0.00 0.00 0.00 70 1016.0
20260901201540 89 248 4.0 14.0 0.00 0.00 0.00 71 1016.1
20260901200042 89 198 4.0 11.0 0.00 0.00 0.00 73 1016.2
20260901194546 88 155 2.0 8.0 0.00 0.00 0.00 74 1016.1
20260901193043 87 236 4.0 16.0 0.00 0.00 0.00 74 1016.2
20260901191550 88 190 4.0 16.0 0.00 0.00 0.00 72 1016.1
20260901190041 88 257 4.0 11.0 0.00 0.00 0.00 73 1016.0
20260901184539 88 212 4.0 11.0 0.00 0.00 0.00 72 1015.9
20260901183051 87 260 3.0 9.0 0.00 0.00 0.00 72 1015.8
20260901181544 87 232 4.0 10.0 0.00 0.00 0.00 73 1015.9
20260901180044 86 240 4.0 11.0 0.00 0.00 0.00 73 1015.9
20260901174547 85 200 2.0 9.0 0.00 0.00 0.00 75 1016.0
20260901173046 85 215 5.0 12.0 0.00 0.00 0.00 74 1016.4
20260901171548 85 217 3.0 8.0 0.00 0.00 0.00 74 1016.5
20260901170043 85 205 1.0 5.0 0.00 0.00 0.00 76 1016.7
20260901164542 86 149 2.0 10.0 0.00 0.00 0.00 73 1016.6
20260901163043 86 208 2.0 6.0 0.00 0.00 0.00 72 1016.6
20260901161548 86 290 1.0 10.0 0.00 0.00 0.00 74 1016.7
20260901160042 87 234 3.0 9.0 0.00 0.00 0.00 74 1016.7
20260901154543 86 268 5.0 12.0 0.00 0.00 0.00 73 1016.8
20260901153047 86 268 3.0 9.0 0.00 0.00 0.00 74 1016.5
20260901151544 85 248 3.0 7.0 0.00 0.00 0.00 73 1016.4
20260901150042 84 161 4.0 11.0 0.00 0.00 0.00 73 1016.6
20260901144543 83 296 6.0 14.0 0.00 0.00 0.00 75 1016.8
20260901143043 82 271 2.0 9.0 0.00 0.00 0.00 76 1016.7
20260901141550 83 240 3.0 11.0 0.00 0.00 0.00 75 1016.6
20260901140046 84 133 4.0 16.0 0.00 0.00 0.00 74 1016.7
20260901134541 83 294 1.0 8.0 0.00 0.00 0.00 75 1016.5
20260901133042 83 305 2.0 7.0 0.00 0.00 0.00 78 1016.4
20260901131540 81 247 2.0 9.0 0.00 0.00 0.00 78 1016.2
20260901130045 80 244 2.0 4.0 0.00 0.00 0.00 81 1016.6
20260901124541 78 189 1.0 4.0 0.00 0.00 0.00 82 1016.8
20260901123043 78 218 0.0 5.0 0.00 0.00 0.00 82 1016.8
20260901121542 78 265 1.0 4.0 0.00 0.00 0.00 82 1016.7
20260901120037 78 257 1.0 3.0 0.00 0.00 0.00 82 1016.7
20260901114543 78 263 1.0 6.0 0.00 0.00 0.00 82 1016.5